• In Uzbekistan
  • List of Countries
  • For 7 days
  • Water Temperature
  • Satellite Maps
  • Weather Map
  • Weather Widgets
  • user-avatar
    Login

    Hourly Weather Ischgl

    Today, 21 August, Tuesday

    Time Temperature Precipitation Wind Pressure Humidity
    00:00 +8°C° 0.1 mm 1 mps 579 mmHg 94%
    01:00 +8°C° 0 mm 1 mps 579 mmHg 95%
    02:00 +8°C° 0.2 mm 1 mps 579 mmHg 95%
    03:00 +8°C° 0.2 mm 1 mps 579 mmHg 94%
    04:00 +7°C° 0.2 mm 1 mps 578 mmHg 94%
    05:00 +8°C° 0.1 mm 1 mps 579 mmHg 91%
    06:00 +9°C° 0.1 mm 1 mps 580 mmHg 88%
    07:00 +10°C° 0.1 mm 1 mps 580 mmHg 85%
    08:00 +12°C° 0.1 mm 1 mps 581 mmHg 76%
    09:00 +14°C° 0.1 mm 1 mps 582 mmHg 67%
    10:00 +16°C° 0.1 mm 1 mps 583 mmHg 58%
    11:00 +18°C° 0.5 mm 1 mps 583 mmHg 56%
    12:00 +18°C° 0.5 mm 1 mps 583 mmHg 54%
    13:00 +18°C° 0.5 mm 2 mps 583 mmHg 52%
    14:00 +17°C° 1.1 mm 2 mps 583 mmHg 57%
    15:00 +16°C° 1.1 mm 2 mps 582 mmHg 62%
    16:00 +16°C° 1.1 mm 2 mps 582 mmHg 67%
    17:00 +14°C° 1.2 mm 1 mps 581 mmHg 74%
    18:00 +13°C° 1.2 mm 1 mps 581 mmHg 82%
    19:00 +12°C° 1.2 mm 1 mps 580 mmHg 89%
    20:00 +11°C° 0.5 mm 1 mps 580 mmHg 90%
    21:00 +10°C° 0.5 mm 1 mps 580 mmHg 90%
    22:00 +10°C° 0.5 mm 1 mps 580 mmHg 91%
    23:00 +9°C° 0.1 mm 1 mps 580 mmHg 91%

    Tomorrow, 22 August, Wednesday

    Time Temperature Precipitation Wind Pressure Humidity
    00:00 +9°C° 0.1 mm 1 mps 579 mmHg 90%
    01:00 +8°C° 0.1 mm 2 mps 579 mmHg 90%
    02:00 +7°C° 0 mm 2 mps 579 mmHg 90%
    03:00 +7°C° 0 mm 2 mps 579 mmHg 90%
    04:00 +7°C° 0 mm 2 mps 579 mmHg 89%
    05:00 +9°C° 0 mm 1 mps 579 mmHg 88%
    06:00 +9°C° 0 mm 1 mps 579 mmHg 86%
    07:00 +10°C° 0 mm 1 mps 580 mmHg 84%
    08:00 +12°C° 0.1 mm 1 mps 581 mmHg 76%
    09:00 +14°C° 0.1 mm 1 mps 582 mmHg 68%
    10:00 +16°C° 0.1 mm 1 mps 583 mmHg 59%
    11:00 +16°C° 1.1 mm 1 mps 582 mmHg 61%
    12:00 +16°C° 1.1 mm 1 mps 582 mmHg 62%
    13:00 +18°C° 1.1 mm 1 mps 582 mmHg 63%
    14:00 +16°C° 1.8 mm 1 mps 582 mmHg 67%
    15:00 +15°C° 1.8 mm 1 mps 581 mmHg 71%
    16:00 +14°C° 1.8 mm 1 mps 581 mmHg 75%
    17:00 +13°C° 1.1 mm 1 mps 580 mmHg 79%
    18:00 +12°C° 1.1 mm 1 mps 580 mmHg 84%
    19:00 +10°C° 1.1 mm 0 mps 579 mmHg 88%
    20:00 +11°C° 0.5 mm 1 mps 579 mmHg 89%
    21:00 +10°C° 0.5 mm 1 mps 579 mmHg 89%
    22:00 +10°C° 0.5 mm 1 mps 579 mmHg 90%
    23:00 +10°C° 0.2 mm 1 mps 579 mmHg 90%

    Day after tomorrow, 23 August, Thursday

    Time Temperature Precipitation Wind Pressure Humidity
    00:00 +9°C° 0.2 mm 1 mps 579 mmHg 90%
    01:00 +9°C° 0.2 mm 1 mps 579 mmHg 90%
    02:00 +9°C° 0.2 mm 1 mps 578 mmHg 90%
    03:00 +9°C° 0.2 mm 1 mps 578 mmHg 90%
    04:00 +8°C° 0.2 mm 1 mps 578 mmHg 90%
    05:00 +9°C° 0.1 mm 1 mps 578 mmHg 89%
    06:00 +10°C° 0.1 mm 1 mps 578 mmHg 87%
    07:00 +10°C° 0.1 mm 1 mps 579 mmHg 86%
    08:00 +12°C° 0.2 mm 1 mps 579 mmHg 78%
    09:00 +13°C° 0.2 mm 1 mps 580 mmHg 70%
    10:00 +14°C° 0.2 mm 0 mps 581 mmHg 62%
    11:00 +16°C° 0.7 mm 1 mps 581 mmHg 61%
    12:00 +16°C° 0.7 mm 1 mps 581 mmHg 60%
    13:00 +18°C° 0.7 mm 1 mps 581 mmHg 59%
    14:00 +16°C° 1.6 mm 1 mps 580 mmHg 64%
    15:00 +15°C° 1.6 mm 1 mps 580 mmHg 70%
    16:00 +14°C° 1.6 mm 1 mps 579 mmHg 75%
    17:00 +13°C° 1.6 mm 1 mps 579 mmHg 80%
    18:00 +12°C° 1.6 mm 1 mps 578 mmHg 85%
    19:00 +10°C° 1.6 mm 0 mps 578 mmHg 91%
    20:00 +10°C° 0.8 mm 1 mps 578 mmHg 91%
    21:00 +10°C° 0.8 mm 1 mps 577 mmHg 92%
    22:00 +9°C° 0.8 mm 1 mps 577 mmHg 93%
    23:00 +9°C° 0.2 mm 1 mps 577 mmHg 93%

    24 August, Friday

    Time Temperature Precipitation Wind Pressure Humidity
    00:00 +9°C° 0.2 mm 1 mps 577 mmHg 93%
    01:00 +8°C° 0.2 mm 1 mps 577 mmHg 93%
    02:00 +8°C° 0.2 mm 1 mps 576 mmHg 93%
    03:00 +8°C° 0.2 mm 1 mps 576 mmHg 93%
    04:00 +8°C° 0.2 mm 1 mps 576 mmHg 93%
    05:00 +8°C° 0.3 mm 1 mps 576 mmHg 92%
    06:00 +9°C° 0.3 mm 1 mps 576 mmHg 91%
    07:00 +9°C° 0.3 mm 1 mps 576 mmHg 90%
    08:00 +10°C° 0.6 mm 1 mps 576 mmHg 87%
    09:00 +10°C° 0.6 mm 1 mps 577 mmHg 85%
    10:00 +11°C° 0.6 mm 1 mps 577 mmHg 82%
    11:00 +12°C° 0.6 mm 1 mps 577 mmHg 79%
    12:00 +12°C° 0.6 mm 1 mps 577 mmHg 76%
    13:00 +13°C° 0.6 mm 1 mps 577 mmHg 73%
    14:00 +12°C° 0.9 mm 1 mps 577 mmHg 76%
    15:00 +12°C° 0.9 mm 2 mps 576 mmHg 79%
    16:00 +12°C° 0.9 mm 2 mps 576 mmHg 82%
    17:00 +10°C° 1.3 mm 2 mps 576 mmHg 86%
    18:00 +8°C° 1.3 mm 2 mps 575 mmHg 91%
    19:00 +7°C° 1.3 mm 2 mps 575 mmHg 95%
    20:00 +7°C° 1.1 mm 2 mps 575 mmHg 96%
    21:00 +7°C° 1.1 mm 2 mps 575 mmHg 96%
    22:00 +6°C° 1.1 mm 2 mps 575 mmHg 96%
    23:00 +6°C° 0.9 mm 2 mps 574 mmHg 97%

    25 August, Saturday

    Time Temperature Precipitation Wind Pressure Humidity
    00:00 +5°C° 0.9 mm 2 mps 574 mmHg 97%
    01:00 +5°C° 0.9 mm 2 mps 574 mmHg 97%
    02:00 +5°C° 1.1 mm 2 mps 573 mmHg 97%
    03:00 +4°C° 1.1 mm 2 mps 573 mmHg 97%
    04:00 +4°C° 1.1 mm 2 mps 573 mmHg 97%
    05:00 +4°C° 1.2 mm 2 mps 572 mmHg 97%
    06:00 +4°C° 1.2 mm 2 mps 572 mmHg 97%
    07:00 +3°C° 1.2 mm 2 mps 572 mmHg 97%
    08:00 +4°C° 0.6 mm 2 mps 572 mmHg 95%
    09:00 +4°C° 0.6 mm 2 mps 572 mmHg 94%
    10:00 +4°C° 0.6 mm 2 mps 572 mmHg 92%
    11:00 +4°C° 0.3 mm 2 mps 572 mmHg 90%
    12:00 +5°C° 0.3 mm 2 mps 572 mmHg 87%
    13:00 +5°C° 0.3 mm 2 mps 572 mmHg 84%
    14:00 +5°C° 0.7 mm 2 mps 572 mmHg 87%
    15:00 +4°C° 0.7 mm 2 mps 571 mmHg 90%
    16:00 +4°C° 0.7 mm 2 mps 571 mmHg 93%
    17:00 +2°C° 2.1 mm 3 mps 571 mmHg 94%
    18:00 +1°C° 2.1 mm 3 mps 570 mmHg 96%
    19:00 +1°C° 2.1 mm 3 mps 570 mmHg 97%
    20:00 0°C° 1.9 mm 3 mps 570 mmHg 97%
    21:00 -1°C° 1.9 mm 3 mps 570 mmHg 97%
    22:00 -1°C° 1.9 mm 3 mps 570 mmHg 98%
    23:00 -2°C° 0.9 mm 3 mps 570 mmHg 97%

    26 August, Sunday

    Time Temperature Precipitation Wind Pressure Humidity
    00:00 -2°C° 0.9 mm 3 mps 569 mmHg 97%
    01:00 -2°C° 0.9 mm 3 mps 569 mmHg 97%
    02:00 -4°C° 0.3 mm 3 mps 569 mmHg 97%
    03:00 -4°C° 0.4 mm 3 mps 569 mmHg 96%
    04:00 -5°C° 0.4 mm 3 mps 569 mmHg 96%
    05:00 -5°C° 0.4 mm 3 mps 569 mmHg 96%
    06:00 -5°C° 0.4 mm 3 mps 569 mmHg 96%
    07:00 -5°C° 0.4 mm 3 mps 569 mmHg 95%
    08:00 -4°C° 1 mm 3 mps 569 mmHg 95%
    09:00 -4°C° 1 mm 4 mps 569 mmHg 95%
    10:00 -4°C° 1 mm 4 mps 569 mmHg 94%
    11:00 -4°C° 0.9 mm 4 mps 570 mmHg 94%
    12:00 -4°C° 0.9 mm 4 mps 570 mmHg 94%
    13:00 -3°C° 0.9 mm 4 mps 570 mmHg 93%
    14:00 -3°C° 0.6 mm 4 mps 570 mmHg 93%
    15:00 -3°C° 0.6 mm 4 mps 570 mmHg 92%
    16:00 -2°C° 0.6 mm 3 mps 570 mmHg 91%
    17:00 -4°C° 0.3 mm 3 mps 571 mmHg 92%
    18:00 -4°C° 0.3 mm 3 mps 571 mmHg 93%
    19:00 -4°C° 0.3 mm 3 mps 571 mmHg 94%
    20:00 -5°C° 0.1 mm 3 mps 571 mmHg 94%
    21:00 -5°C° 0.1 mm 3 mps 571 mmHg 95%
    22:00 -6°C° 0.1 mm 3 mps 571 mmHg 95%
    23:00 -6°C° 0.1 mm 3 mps 572 mmHg 95%
    Show more